Simultaneous Nadir Overpasses (SNOs) Predictions

Prediction of SNOs between AQUA and GOES-15 Satellite Orbit:

Table of predicted SNOs for the next 14.0 days since TLE Epoch: 9/11/2021
Index Date Time (AQUA) AQUA Lat,Lon GOES-15 Lat,Lon Distance(km) Time Diff (sec)
1 09/12/2021 09:54:47 -0.27,-124.86 0.42,-128.15 374.15 80
2 09/12/2021 22:16:11 -0.80,-130.06 -0.41,-128.09 223.63 80
3 09/14/2021 22:04:00 -0.21,-127.09 -0.40,-128.03 106.78 80
4 09/15/2021 10:25:15 1.27,-132.26 0.39,-128.07 475.76 80
5 09/16/2021 21:51:49 0.45,-124.14 -0.40,-127.98 436.84 80
6 09/17/2021 10:13:03 0.68,-129.29 0.38,-128.01 145.75 80
7 09/19/2021 10:00:52 0.02,-126.34 0.38,-127.96 184.44 80
8 09/19/2021 22:22:16 -1.13,-131.53 -0.37,-127.89 413.00 80
9 09/21/2021 22:10:04 -0.52,-128.56 -0.37,-127.84 82.68 80
10 09/23/2021 21:57:52 0.09,-125.60 -0.37,-127.78 247.39 80
11 09/24/2021 10:19:08 0.98,-130.76 0.35,-127.81 336.00 80
